Location: Maidenhead
(51.5224°N, 0.7219°W)
Time: 16:47:38
(UTC+01:00)

ISS - Visible Passes

Search period start: 25 May 2020 00:00
Search period end: 04 June 2020 00:00
Orbit: 417 x 420 km, 51.6° (Epoch: 26 May)

Date Brightness Start Highest point End Pass type
(mag) Time Alt. Az. Time Alt. Az. Time Alt. Az.
25 May -3.7 22:55:58 10° W 22:59:19 58° SSW 23:01:21 21° SE visible
26 May -1.5 00:33:22 10° W 00:34:16 14° WSW 00:34:16 14° WSW visible
26 May -3.8 22:08:10 10° W 22:11:33 73° SSW 22:14:54 10° ESE visible
26 May -2.4 23:45:13 10° W 23:47:59 24° SW 23:48:01 24° SSW visible
27 May -2.8 22:57:15 10° W 23:00:19 33° SSW 23:01:47 22° SSE visible
28 May -3.2 22:09:22 10° W 22:12:36 44° SSW 22:15:35 12° SE visible
28 May -1.4 23:47:30 10° WSW 23:48:30 12° SW 23:48:30 12° SW visible
29 May -1.8 22:58:52 10° W 23:01:09 17° SW 23:02:20 15° SSW visible
30 May -2.2 22:10:42 10° W 22:13:29 24° SSW 22:16:11 10° SSE visible
01 Jun -1.3 22:12:49 10° WSW 22:14:09 12° SW 22:15:29 10° SSW visible
